Погода в Пологах

Украина / Запорожская область     47°28′31″N   36°16′33″E
темп.,
°C
ветер,
м/с
пор.,
м/с
влажн.,
%
обл.,
%
осадки,
мм/ч
давл.,
гПа
погр.,
м
12 мая, ср
ср1200:00+7ссз2488100 0.3 1013328
03:00+7всв1292100 0.6 1013182
06:00+7вюв2493100 0.6 1013288
09:00+9ююв3476100 1.0 1013859
12:00+13ююз4758100 0.3 10131686
15:00+13ююз5854100 0.4 10131600
18:00+13ю57595 0.5 10121435
21:00+8ююв47902 0.6 1013124
13 мая, чт
чт1300:00+8ююв37935 0.1 1013130
03:00+8ююв359299 0.1 1013106
06:00+8ююв23915 0.0 101355
09:00+15ююв24635 0.0 1013733
12:00+19ю45495 0.0 10131192
15:00+22ю4544100 0.0 10121513
18:00+20ююв34595 0.0 1012189
21:00+15вюв467379 0.0 101282
14 мая, пт
пт1400:00+13вюв48855 0.0 1011124
03:00+13вюв369260 0.0 101098
06:00+14юв359460 0.1 1010118
09:00+19юв2376100 0.1 1010314
12:00+25ю4546100 0.0 10101152
15:00+26ю4539100 0.0 10101530
18:00+24ю465090 0.0 1010308
21:00+17ююз45700 0.0 101170
15 мая, сб
сб1500:00+14зюз347369 0.0 101162
03:00+14зюз3480100 0.0 101279
06:00+13зсз23853 0.0 101263
09:00+19сз22622 0.0 1013545
12:00+23зюз2345100 0.0 10141500
15:00+25юз34412 0.0 10132204
18:00+24зюз234382 0.0 10122024
21:00+17юз226864 0.0 101318
16 мая, вс
вс1600:00+16св007198 0.0 101211
03:00+14св337840 0.0 101237
06:00+15всв4979100 0.0 1011156
09:00+22всв686215 0.0 1010513
12:00+27в675314 0.0 10081485
15:00+28всв664826 0.0 10061979
18:00+25в6957100 0.0 1005579
21:00+19в4117763 0.0 1004190